Weather Roundup
Issued by NWS Chicago, IL

Home | Current Version | Previous Version | Graphics & Text | Print | Product List | Glossary On
Versions: 1 2 3 4 5 6 7 8 9 10 11 12 13 14 15 16 17 18 19 20 21 22 23 24 25 26 27 28 29 30 31 32 33 34 35 36 37 38 39 40 41 42 43 44 45 46 47 48 49 50
000
NZUS59 KLOT 271503
HRRLOT

CHICAGO AREA WEATHER ROUNDUP
NATIONAL WEATHER SERVICE CHICAGO/ROMEOVILLE IL
1000 AM CDT SAT AUG 27 2016

NOTE: "FAIR" INDICATES FEW OR NO CLOUDS BELOW 12,000 FEET WITH NO
SIGNIFICANT WEATHER AND/OR OBSTRUCTIONS TO VISIBILITY.

* THESE STATIONS ARE NOT UNDER NWS QUALITY CONTROL. THEY ALSO MAY NOT
  REPORT WEATHER SUCH AS PRECIPITATION OR FOG.

ILZ005-006-012>014-019>023-271600-
NORTHEAST ILLINOIS

CITY           SKY/WX    TMP DP  RH WIND       PRES   REMARKS
OHARE          CLOUDY    72  70  93 SE5       30.04F
MIDWAY         CLOUDY    74  71  91 SE9       30.04F
AURORA         CLOUDY    75  72  90 SE8       30.04F
LANSING*       PTSUNNY   74  73  95 NE7       30.06F
JOLIET*        CLOUDY    74  73  98 S5        30.06R
WAUKEGAN       CLOUDY    71  69  93 S6        30.06R
DUPAGE AIRPORT CLOUDY    73  70  90 SE7       30.04F
WHEELING       CLOUDY    72  70  93 S7        30.06F
KANKAKEE*      CLOUDY    75  72  91 SE10      30.07F
MORRIS*        PTSUNNY   74  72  91 S3        30.04R
LEWIS AIRPORT* CLOUDY    73  73 100 S5        30.06R
NORTHERLY ISL    N/A     71  69  93 S5          N/A
$$

WIZ051-052-058>065-066-070>072-271600-
SOUTHEAST WISCONSIN

CITY           SKY/WX    TMP DP  RH WIND       PRES   REMARKS
MILWAUKEE      CLOUDY    67  64  90 N8        30.07F
KENOSHA*       CLOUDY    72  68  87 S7        30.07S
RACINE*        CLOUDY    70  66  87 N5        30.08S
BURLINGTON     CLOUDY    67  64  90 NE6       30.06F
WAUKESHA       CLOUDY    61  61 100 NE6       30.10F
$$

INZ001>003-010>013-019-020-271600-
NORTHWEST INDIANA

CITY           SKY/WX    TMP DP  RH WIND       PRES   REMARKS
GARY*          PTSUNNY   75  75 100 E9        30.07F
MICHIGAN CITY* NOT AVBL
RENSSELAER*    NOT AVBL
VALPARAISO     CLOUDY    72  70  93 SE9       30.10S
$$

LMZ740>746-271600-
SOUTHERN LAKE MICHIGAN

STATION/POSITION TIME  SKY/WX   TEMP WIND        PRES    VSBY
                                AIR  DIR/SP/G
                 (UTC)          (F)  (DEG/KT/KT) (MB)    (MI)
HARRISON CRIB    1400            72  140/ 15/ 16   N/A
BURNHAM HARBOR   1500            72  120/  8/  8   N/A
CALUMET HARBOR   1400            71  120/  5/  8 1018.0R
BURNS HARBOR     1407            71  110/  7/ 13 1019.3F
MICHIGAN CITY    1400            69   60/  9/ 10   N/A
$$

ABBREVIATIONS USED IN REMARKS
   TC - TEMPERATURE IN CELSIUS
  WCI - WIND CHILL INDEX
   HX - HEAT INDEX
  VSB - VISIBILITY
$$




USA.gov is the U.S. government's official web portal to all federal, state and local government web resources and services.